Retour au catalogue

STARLINK-35430

ActifCommunicationsVLEO
NORAD 66020·PAYLOAD·🇺🇸 United States

Lancé Oct 16, 2025 depuis Cape Canaveral Space Force Station

Loading…

Prochains Passages (prochaines 24 heures)

TLE

FraisSource: CelesTrak SupGP

Époque: Sep 14, 2026, 15:44 UTC

1 66020C 25232R   26257.65604167  .00022634  00000+0  66903-3 0  2575
2 66020  53.1583 304.9965 0001192  84.5637 284.9644 15.34365326    19

Suivez STARLINK-35430 en temps réel avec AllMySat

Download on the App Store